Погода в Йонаве

Литва     55°04′42″N   24°16′35″E
темп.,
°C
ветер,
м/с
пор.,
м/с
влажн.,
%
обл.,
%
осадки,
мм/ч
давл.,
гПа
погр.,
м
12 апреля, пн
пн1200:00+12ююв51563100 0.0 1021513
03:00+10ююв51562100 0.0 1021477
06:00+9ююв51565100 0.0 1020461
09:00+10ююв61459100 0.0 1020630
12:00+14ююв71247100 0.0 1020987
15:00+15ююв6943100 0.0 10191290
18:00+12ю31055100 0.0 1018402
21:00+11ююв2565100 0.0 1018132
13 апреля, вт
вт1300:00+10ююз2687100 0.4 1019218
03:00+6зсз5993100 1.1 1020378
06:00+5сз4892100 0.6 1021483
09:00+5сз4788100 0.8 1023576
12:00+5ссз3681100 0.0 1024634
15:00+7с3672100 0.0 1024870
18:00+7ссв2565100 0.0 10231091
21:00+6с2270100 0.0 102327
14 апреля, ср
ср1400:00+4ссз41067100 0.0 1023361
03:00+4ссз3776100 0.0 1022316
06:00+3ссз3880100 0.0 1021354
09:00+4с4773100 0.0 1021435
12:00+7с4760100 0.0 10211214
15:00+7ссв5762100 0.1 10211170
18:00+7ссв4869100 0.1 10201041
21:00+6ссв51060100 0.1 1020881
15 апреля, чт
чт1500:00+5ссв4979100 0.0 1020719
03:00+3ссв51194100 0.2 1020690
06:00+4ссв51196100 0.3 1019599
09:00+5св51192100 0.3 1020579
12:00+6св51087100 0.1 1020511
15:00+8св5879100 0.5 1020688
18:00+9св5874100 0.0 10201010
21:00+7св31080100 0.1 1021528
16 апреля, пт
пт1600:00+6ссв41079100 0.1 1021452
03:00+6ссв51172100 0.1 1021536
06:00+4ссв51280100 0.4 1021539
09:00+4ссв51278100 0.6 1022622
12:00+6св4117996 0.3 1022663
15:00+10всв5970100 0.3 10231150
18:00+9св61270100 0.0 10241030
21:00+8всв51365100 0.0 10251040